This is the latest recevied weather packets stored in our database for station/object VK5TRM-13. If no packets are shown the sender has not sent any weather packets the latest 10 day(s).
| Time | Temp. | Humidity | Pressure | Rain* | Wind** | Luminosity | Snow |
|---|---|---|---|---|---|---|---|
| 1787574002 | 13.89° C | 95% | 1012.5 hPa | 0.51 mm | - | - | - |
| 1787573102 | 13.89° C | 95% | 1012.5 hPa | 0.51 mm | - | - | - |
| 1787572202 | 13.89° C | 95% | 1012.8 hPa | 0.51 mm | - | - | - |
| 1787571302 | 13.89° C | 95% | 1012.8 hPa | 0.51 mm | - | - | - |
| 1787570403 | 13.89° C | 95% | 1012.9 hPa | 0.25 mm | - | - | - |
| 1787569503 | 13.89° C | 95% | 1012.9 hPa | 0.25 mm | - | - | - |
| 1787568603 | 13.33° C | 94% | 1012.8 hPa | 0 mm | - | - | - |
| 1787567702 | 13.33° C | 94% | 1012.8 hPa | 0 mm | - | - | - |
| 1787566802 | 13.33° C | 94% | 1012.6 hPa | 0 mm | - | - | - |
| 1787565903 | 13.33° C | 94% | 1012.6 hPa | 0 mm | - | - | - |
| 1787565002 | 13.33° C | 94% | 1012.5 hPa | 0.25 mm | - | - | - |
| 1787564102 | 13.33° C | 94% | 1012.5 hPa | 0.25 mm | - | - | - |
| 1787563202 | 13.89° C | 93% | 1012.5 hPa | 0.25 mm | - | - | - |
| 1787562302 | 13.89° C | 93% | 1012.5 hPa | 0.25 mm | - | - | - |
| 1787561403 | 13.89° C | 94% | 1012.5 hPa | 0.51 mm | - | - | - |
| 1787560503 | 13.89° C | 94% | 1012.4 hPa | 1.02 mm | - | - | - |
| 1787559603 | 13.89° C | 94% | 1012.4 hPa | 1.02 mm | - | - | - |
| 1787558703 | 14.44° C | 92% | 1013.2 hPa | 0.76 mm | - | - | - |
| 1787557802 | 14.44° C | 92% | 1013.2 hPa | 0.76 mm | - | - | - |
| 1787556902 | 14.44° C | 92% | 1013.2 hPa | 0.76 mm | - | - | - |
| 1787556002 | 14.44° C | 89% | 1013.5 hPa | 0.76 mm | - | - | - |
| 1787555102 | 14.44° C | 89% | 1013.5 hPa | 0.76 mm | - | - | - |
| 1787554203 | 15° C | 86% | 1013.5 hPa | 0.76 mm | - | - | - |
| 1787553303 | 15° C | 86% | 1013.5 hPa | 0.76 mm | - | - | - |
| 1787552403 | 15.56° C | 82% | 1013.4 hPa | 0.51 mm | - | - | - |
* Rain latest hour (hover to see other rain measurements)
** Current wind speed in m/s (hover to see current wind gust speed)